Regional Weather Roundup
Issued by NWS

Home | Current Version | Previous Version | Graphics & Text | Print | Product List | Glossary Off
Versions: 1 2 3 4 5 6 7 8 9 10 11 12 13 14 15 16 17 18 19 20 21 22 23 24 25 26 27 28 29 30 31 32 33 34 35 36 37 38 39 40 41 42 43 44 45 46 47 48 49 50

000
ASUS43 KTOP 221708
RWRKS

WEATHER ROUNDUP FOR KANSAS
NATIONAL WEATHER SERVICE GOODLAND KS
1200 PM CDT SAT APR 22 2017

NOTE:  "FAIR" INDICATES FEW OR NO CLOUDS BELOW 12,000 FEET WITH NO
SIGNIFICANT WEATHER AND/OR OBSTRUCTIONS TO VISIBILITY.

KSZ001>006-013>018-027>032-041>047-221800-
NORTHWEST KANSAS

CITY           SKY/WX    TMP DP  RH WIND       PRES   REMARKS
GOODLAND       PTSUNNY   50  35  56 MISG      30.31S
HAYS           CLOUDY    54  38  54 NE9       30.29R
HILL CITY      PTSUNNY   56  36  47 NE9G16    30.31R
RUSSELL        CLOUDY    55  35  47 NE13      30.26R
$$

KSZ061>065-074>080-084>089-221800-
SOUTHWEST KANSAS

CITY           SKY/WX    TMP DP  RH WIND       PRES   REMARKS
DODGE CITY     CLOUDY    52  40  63 N20G25    30.27R
ELKHART          N/A     50  33  52 N9          N/A
GARDEN CITY    CLOUDY    51  37  58 N14G23    30.29R
GREAT BEND     CLOUDY    55  35  47 NE16G23   30.26R
LIBERAL        PTSUNNY   54  37  54 N18       30.30R
PRATT          CLOUDY    49  38  64 N15G22    30.24R
$$

KSZ066>073-081>083-090>101-221800-
SOUTHEAST KANSAS

CITY           SKY/WX    TMP DP  RH WIND       PRES   REMARKS
CHANUTE        CLOUDY    52  41  66 N16G24    30.14R
COFFEYVILLE    CLOUDY    50  42  74 N16G23    30.14R
HUTCHINSON     CLOUDY    53  39  59 N15G21    30.23R
MEDICINE LODGE   N/A     55  40  56 N17G26    30.21R
NEWTON         CLOUDY    51  40  65 N14       30.22R
PARSONS        LGT RAIN  49  41  74 N15G23    30.15R
WICHITA INTL   CLOUDY    51  42  71 N15G21    30.21R
WICHITA JABRA  CLOUDY    50  41  71 N13       30.21R
WICHITA MCCONL CLOUDY    51  40  68 NE17      30.21R
WINFIELD       CLOUDY    52  40  63 N14       30.20R
$$

KSZ007>012-019>026-033>040-048>060-102>105-221800-
NORTHEAST KANSAS

CITY           SKY/WX    TMP DP  RH WIND       PRES   REMARKS
CONCORDIA      MOSUNNY   58  39  49 NE10      30.25S
EMPORIA        CLOUDY    54  41  61 N14G22    30.18S
LAWRENCE       SUNNY     61  37  41 NE22G28   30.16F
MANHATTAN      MOSUNNY   61  40  45 NE21G26   30.21S
MARYSVILLE     MOSUNNY   61  34  36 NE18G25   30.23S
OLATHE IND     CLOUDY    58  35  42 N22G31    30.15S
OLATHE EXE     SUNNY     58  33  39 NE20G28   30.14S
SALINA         CLOUDY    59  35  40 E13       30.25R
TOPEKA BILLARD MOSUNNY   61  38  42 NE20      30.18S
TOPEKA FORBES  MOSUNNY   61  37  41 NE15G24   30.17S
$$




USA.gov is the U.S. government's official web portal to all federal, state and local government web resources and services.